DOUGLAS Weather Reports


time (UTC)temp
F
wind
direction
speed
knots
gust
knots
rain 1hr
in
rain 24hr
in
rain mn
in
humidity
%
barometer
mb
20260507015003 50 267 1.7 7.0 0.00 0.00 0.00 99
20260507014003 50 257 1.7 7.8 0.00 0.00 0.00 99
20260507013003 50 259 2.6 5.2 0.00 0.00 0.00 99
20260507012003 50 242 0.9 6.1 0.00 0.00 0.00
20260507011003 50 236 1.7 4.3 0.00 0.00 0.00 99
20260507010004 51 244 0.9 5.2 0.00 0.00 0.00 98
20260507005002 50 227 0.9 7.0 0.00 0.00 0.00 98
20260507004003 50 257 2.6 6.1 0.00 0.00 0.00 99
20260507003003 51 252 0.9 7.8 0.00 0.00 0.00 98
20260507002003 50 263 2.6 7.8 0.00 0.00 0.00 99
20260507001003 50 256 1.7 7.8 0.00 0.00 0.00 98
20260507000004 51 271 0.9 6.1 0.00 0.00 0.00 98
20260506235002 51 246 1.7 5.2 0.00 0.00 0.00 99
20260506234002 50 220 1.7 7.8 0.00 0.00 0.00 98
20260506233003 50 257 4.3 7.0 0.00 0.00 0.00 98
20260506232003 50 266 1.7 7.8 0.00 0.00 0.00 98
20260506231003 50 182 1.7 7.0 0.00 0.00 0.00 98
20260506230004 50 247 2.6 7.0 0.00 0.00 0.00 97
20260506225003 51 264 1.7 7.0 0.00 0.00 0.00 97
20260506224003 51 277 0.9 5.2 0.00 0.00 0.00 97
20260506223003 51 258 3.5 10.4 0.00 0.00 0.00 97
20260506222002 51 269 1.7 8.7 0.00 0.00 0.00 97
20260506221003 51 264 2.6 10.4 0.00 0.00 0.00 97
20260506220003 52 275 0.9 3.5 0.00 0.00 0.00 96
20260506215004 52 241 0.9 4.3 0.00 0.00 0.00 96
20260506214002 52 269 1.7 8.7 0.00 0.00 0.00 97
20260506213003 52 252 1.7 5.2 0.00 0.00 0.00 97
20260506212008 52 279 0.9 7.8 0.00 0.00 0.00 95
20260506211003 51 258 2.6 6.1 0.00 0.00 0.00 96
20260506210004 52 231 2.6 8.7 0.00 0.00 0.00 97
20260506205003 51 219 2.6 7.8 0.00 0.00 0.00 97
20260506204004 51 260 3.5 8.7 0.00 0.00 0.00 96
20260506203003 52 261 2.6 5.2 0.00 0.00 0.00 97
20260506202003 51 279 1.7 7.0 0.00 0.00 0.00 96
20260506201003 51 266 2.6 6.1 0.00 0.00 0.00 98
20260506200004 50 256 3.5 7.0 0.00 0.00 0.00 98
20260506195003 51 242 0.9 4.3 0.00 0.00 0.00 96
20260506194003 51 265 0.0 7.0 0.00 0.00 0.00 98
20260506193002 51 227 1.7 5.2 0.00 0.00 0.00 98
20260506192002 50 258 0.9 5.2 0.00 0.00 0.00 99
20260506191003 50 266 0.0 4.3 0.00 0.00 0.00
20260506190003 50 263 0.9 4.3 0.00 0.00 0.00
20260506185003 50 237 0.9 6.1 0.00 0.00 0.00
20260506184003 50 244 0.9 3.5 0.00 0.00 0.00
20260506183004 50 269 1.7 5.2 0.00 0.00 0.00
20260506182002 50 260 0.9 4.3 0.00 0.00 0.00
20260506181002 50 200 0.0 3.5 0.00 0.00 0.00 98
20260506180004 50 227 0.9 3.5 0.00 0.00 0.00 98
20260506175003 50 246 0.9 2.6 0.00 0.00 0.00 97
20260506174003 51 215 0.0 3.5 0.00 0.00 0.00 98
20260506173003 50 263 0.9 3.5 0.00 0.00 0.00 97
20260506172003 51 265 0.0 5.2 0.00 0.00 0.00 97
20260506171003 50 276 0.9 4.3 0.00 0.00 0.00 99
20260506170004 50 237 0.9 5.2 0.00 0.00 0.00
20260506165003 50 262 2.6 5.2 0.00 0.00 0.00
20260506164003 49 247 0.9 5.2 0.00 0.00 0.00
20260506163004 49 247 0.9 3.5 0.00 0.00 0.00
20260506162003 50 104 0.0 3.5 0.00 0.00 0.00
20260506161002 49 248 0.9 3.5 0.00 0.00 0.00
20260506160003 49 265 0.0 2.6 0.00 0.00 0.00
20260506155003 49 186 0.9 3.5 0.00 0.00 0.00
20260506154003 49 225 0.9 2.6 0.00 0.00 0.00
20260506153003 49 221 0.0 1.7 0.00 0.00 0.00
20260506152003 49 124 0.0 1.7 0.00 0.00 0.00
20260506151003 48 117 0.9 4.3 0.00 0.00 0.00
20260506150004 48 202 0.0 3.5 0.00 0.00 0.00
20260506145003 48 219 1.7 3.5 0.00 0.00 0.00
20260506144003 48 90 0.0 2.6 0.00 0.00 0.00
20260506143003 48 100 0.9 2.6 0.00 0.00 0.00
20260506142003 48 81 0.9 1.7 0.00 0.00 0.00
20260506141003 48 70 0.0 0.9 0.00 0.00 0.00
20260506140008 48 213 0.9 2.6 0.00 0.00 0.00
20260506135003 48 236 0.0 1.7 0.00 0.00 0.00
20260506134003 48 268 0.9 3.5 0.00 0.00 0.00
20260506133003 48 206 0.0 2.6 0.00 0.00 0.00
20260506132003 48 289 0.0 3.5 0.00 0.00 0.00 100
20260506131003 48 306 126.9 1.7 0.00 0.00 0.00
20260506130003 48 257 0.0 1.7 0.00 0.00 0.00
20260506125002 48 247 0.0 3.5 0.00 0.00 0.00
20260506124003 48 256 0.9 2.6 0.00 0.00 0.00
20260506123003 48 251 0.0 1.7 0.00 0.00 0.00
20260506122003 48 199 0.0 2.6 0.00 0.00 0.00
20260506121003 48 290 0.0 2.6 0.00 0.00 0.00
20260506120004 48 262 0.0 2.6 0.00 0.00 0.00
20260506115003 48 267 0.9 3.5 0.00 0.00 0.00
20260506114003 48 212 0.9 2.6 0.00 0.00 0.00
20260506113019 48 242 0.9 2.6 0.00 0.00 0.00
20260506112003 48 244 0.0 3.5 0.00 0.00 0.00
20260506111003 48 246 0.9 1.7 0.00 0.00 0.00 100
20260506110003 48 247 0.0 3.5 0.00 0.00 0.00
20260506105003 48 192 0.0 4.3 0.00 0.00 0.00
20260506104003 48 247 0.9 3.5 0.00 0.00 0.00
20260506103004 48 259 0.0 1.7 0.00 0.00 0.00
20260506102002 48 123 0.0 3.5 0.00 0.00 0.00
20260506101003 48 147 0.9 2.6 0.00 0.00 0.00
20260506100009 48 206 0.0 3.5 0.00 0.00 0.00
20260506095003 48 170 0.0 2.6 0.00 0.00 0.00
20260506094003 48 234 0.0 3.5 0.00 0.00 0.00
20260506093004 48 261 0.9 4.3 0.00 0.00 0.00
20260506092002 48 252 0.9 5.2 0.00 0.00 0.00
20260506091003 48 298 0.0 3.5 0.00 0.00 0.00
20260506090003 48 250 0.9 1.7 0.00 0.00 0.00
20260506085003 48 287 0.0 3.5 0.00 0.00 0.00
20260506084003 48 244 0.9 3.5 0.00 0.00 0.00
20260506083003 48 162 0.0 1.7 0.00 0.00 0.00
20260506082002 48 261 0.9 2.6 0.00 0.00 0.00
20260506081002 48 239 0.9 3.5 0.00 0.00 0.00
20260506073003 49 265 0.9 2.6 0.00 0.00 0.00
20260506072003 49 302 0.0 0.9 0.00 0.00 0.00 100
20260506071003 49 68 126.9 0.0 0.00 0.00 0.00
20260506062003 49 257 0.0 1.7 0.00 0.00 0.00
20260506061003 49 277 0.9 2.6 0.00 0.00 0.00
20260506051003 50 258 1.7 4.3 0.00 0.00 0.00
20260506045003 50 265 1.7 3.5 0.00 0.00 0.00
20260506044002 50 258 1.7 3.5 0.00 0.00 0.00
20260506043003 50 262 0.9 4.3 0.00 0.00 0.00
20260506042003 50 255 1.7 4.3 0.00 0.00 0.00
20260506041003 50 264 1.7 4.3 0.00 0.00 0.00
20260506040004 50 256 2.6 6.1 0.00 0.00 0.00
20260506035003 51 253 2.6 7.0 0.00 0.00 0.00
20260506034003 51 260 2.6 7.0 0.00 0.00 0.00
20260506033003 51 262 3.5 6.1 0.00 0.00 0.00
20260506032003 51 260 2.6 7.0 0.00 0.00 0.00
20260506031003 51 276 0.9 6.1 0.00 0.00 0.00
20260506030004 51 259 3.5 7.0 0.00 0.00 0.00
20260506025003 51 255 2.6 6.1 0.00 0.00 0.00
20260506024003 52 261 1.7 7.0 0.00 0.00 0.00
20260506023004 52 267 1.7 6.1 0.00 0.00 0.00
20260506022002 52 256 2.6 7.8 0.00 0.00 0.00
20260506021002 52 269 2.6 5.2 0.00 0.00 0.00 99
20260506020004 53 269 1.7 7.0 0.00 0.00 0.00 98